Location: Roland
(31.1349°N, 85.4372°W)
Time: 19:57:35
(UTC+00:00)

SR - Pass Details

Date: 15 April 2021
Orbit: 573 x 882 km, 66.7° (Epoch: 13 May)

Event Time Altitude Azimuth Distance (km) Brightness Sun altitude
Rises 01:11:02 0° 311° (NW) 3,397 ? -13.4°
Reaches altitude 10° 01:14:50 10° 287° (WNW) 2,402 ? -14.2°
Maximum altitude 01:17:28 14° 258° (WSW) 2,106 ? -14.7°
Drops below altitude 10° 01:20:01 10° 229° (SW) 2,302 ? -15.2°
Sets 01:23:31 0° 203° (SSW) 3,149 ? -15.9°
